Weather History for Cherokee, IA

Change the Weather History Date:

Wednesday, November 21, 2012

  Actual Average Record
Temperature  
Mean Temperature 14 °C -  
Max Temperature 23 °C 4 °C 22 °C (2012)
Min Temperature 7 °C -6 °C -20 °C (1964)
Degree Days  
Heating Degree Days 6    
Growing Degree Days 8 (Base 50)    
Moisture  
Dew Point 1 °C    
Average Humidity 42    
Maximum Humidity 64    
Minimum Humidity 19    
Precipitation  
Precipitation 0.00 mm - - ()
Sea Level Pressure  
Sea Level Pressure 1013 hPa    
Wind  
Wind Speed 18 km/h (SSW)    
Max Wind Speed 42 km/h    
Max Gust Speed 53 km/h    
Visibility 16 kilometers    
Events      
Averages and records for this station are not official NWS values.
T = Trace of Precipitation, MM = Missing Value Source: NWS Daily Summary

Daily Weather History Graph

Daily Weather History Graph

Search for Another Location

Airport:

Trip Planner

Search our weather history database for the weather conditions in past years. The results will help you decide how hot, cold, wet, or windy it might be!

Date:

Astronomy

Nov. 21, 2012 Rise Set
Actual Time 7:22 AM CST 4:54 PM CST
Civil Twilight 6:51 AM CST 5:25 PM CST
Nautical Twilight 6:16 AM CST 5:59 PM CST
Astronomical Twilight 5:42 AM CST 6:33 PM CST
Moon 1:18 PM CST 12:33 AM CST
Length of Visible Light 10h 33m
Length of Day
9h 32m
First Quarter, 62% of the Moon is Illuminated
Nov 21
First Quarter
Nov 28
Full
Dec 6
Last Quarter
Dec 13
New
Dec 19
First Quarter

Hourly Weather History & Observations

Time (CST) Temp. Windchill Dew Point Humidity Pressure Visibility Wind Dir Wind Speed Gust Speed Precip Events Conditions
12:15 AM 9.3 °C - -0.5 °C 51% 1017.8 hPa 16.1 km South 14.8 km/h / 4.1 m/s - N/A   Clear
12:35 AM 8.7 °C - -0.5 °C 53% 1017.5 hPa 16.1 km South 13.0 km/h / 3.6 m/s - N/A   Clear
12:55 AM 8.5 °C - -0.3 °C 54% 1017.5 hPa 16.1 km South 13.0 km/h / 3.6 m/s - N/A   Clear
1:15 AM 7.8 °C 5.5 °C -0.1 °C 58% 1017.5 hPa 16.1 km South 13.0 km/h / 3.6 m/s - N/A   Clear
1:35 AM 8.1 °C - 0.0 °C 57% 1017.5 hPa 16.1 km South 13.0 km/h / 3.6 m/s - N/A   Clear
1:55 AM 7.1 °C 5.3 °C 0.0 °C 61% 1017.5 hPa 16.1 km South 9.3 km/h / 2.6 m/s - N/A   Clear
2:15 AM 7.9 °C 6.3 °C 0.1 °C 58% 1017.2 hPa 16.1 km South 9.3 km/h / 2.6 m/s - N/A   Clear
2:35 AM 7.8 °C 6.2 °C 0.0 °C 58% 1017.5 hPa 16.1 km South 9.3 km/h / 2.6 m/s - N/A   Clear
2:55 AM 8.1 °C - 0.0 °C 57% 1017.2 hPa 16.1 km South 5.6 km/h / 1.5 m/s - N/A   Clear
3:15 AM 7.7 °C 5.7 °C 0.2 °C 59% 1017.2 hPa 16.1 km South 11.1 km/h / 3.1 m/s - N/A   Clear
3:35 AM 7.7 °C 6.1 °C 0.1 °C 59% 1016.8 hPa 16.1 km South 9.3 km/h / 2.6 m/s - N/A   Clear
3:55 AM 8.2 °C - 0.0 °C 57% 1016.8 hPa 16.1 km South 7.4 km/h / 2.1 m/s - N/A   Clear
4:15 AM 8.1 °C - 0.0 °C 57% 1016.8 hPa 16.1 km South 14.8 km/h / 4.1 m/s - N/A   Clear
4:35 AM 8.6 °C - 0.0 °C 55% 1016.8 hPa 16.1 km South 14.8 km/h / 4.1 m/s - N/A   Clear
4:55 AM 8.1 °C - 0.1 °C 57% 1016.5 hPa 16.1 km South 14.8 km/h / 4.1 m/s - N/A   Clear
5:15 AM 8.0 °C 6.1 °C 0.1 °C 58% 1016.5 hPa 16.1 km South 11.1 km/h / 3.1 m/s - N/A   Clear
5:35 AM 6.9 °C 4.4 °C 0.5 °C 64% 1016.1 hPa 16.1 km South 13.0 km/h / 3.6 m/s - N/A   Clear
5:55 AM 7.2 °C 5.5 °C 0.5 °C 63% 1016.1 hPa 16.1 km South 9.3 km/h / 2.6 m/s - N/A   Clear
6:15 AM 6.9 °C - 0.5 °C 64% 1016.1 hPa 16.1 km Calm Calm - N/A   Clear
6:35 AM 8.0 °C 6.4 °C 0.8 °C 61% 1016.1 hPa 16.1 km South 9.3 km/h / 2.6 m/s - N/A   Clear
6:55 AM 7.5 °C 5.8 °C 0.8 °C 63% 1016.1 hPa 16.1 km SSW 9.3 km/h / 2.6 m/s - N/A   Clear
7:15 AM 7.8 °C 5.8 °C 1.0 °C 62% 1016.1 hPa 16.1 km South 11.1 km/h / 3.1 m/s - N/A   Clear
7:35 AM 8.2 °C - 1.3 °C 62% 1015.8 hPa 16.1 km South 14.8 km/h / 4.1 m/s - N/A   Clear
7:55 AM 9.0 °C - 1.5 °C 60% 1015.8 hPa 16.1 km South 14.8 km/h / 4.1 m/s - N/A   Clear
8:15 AM 10.1 °C - 1.9 °C 57% 1015.8 hPa 16.1 km SSW 20.4 km/h / 5.7 m/s - N/A   Clear
8:35 AM 11.7 °C - 1.6 °C 50% 1015.8 hPa 16.1 km SSW 25.9 km/h / 7.2 m/s - N/A   Clear
8:55 AM 12.7 °C - 1.3 °C 46% 1015.8 hPa 16.1 km SSW 24.1 km/h / 6.7 m/s - N/A   Clear
9:15 AM 13.5 °C - 1.1 °C 43% 1015.8 hPa 16.1 km SSW 25.9 km/h / 7.2 m/s 33.3 km/h / 9.3 m/s N/A   Clear
9:35 AM 14.1 °C - 1.1 °C 41% 1015.8 hPa 16.1 km SSW 25.9 km/h / 7.2 m/s 35.2 km/h / 9.8 m/s N/A   Clear
9:55 AM 14.9 °C - 0.9 °C 39% 1015.8 hPa 16.1 km SSW 31.5 km/h / 8.7 m/s 37.0 km/h / 10.3 m/s N/A   Clear
10:15 AM 15.6 °C - 0.7 °C 36% 1015.5 hPa 16.1 km SSW 29.6 km/h / 8.2 m/s - N/A   Clear
10:35 AM 16.5 °C - 0.2 °C 33% 1015.5 hPa 16.1 km SSW 25.9 km/h / 7.2 m/s 35.2 km/h / 9.8 m/s N/A   Clear
10:55 AM 17.4 °C - -0.1 °C 31% 1015.1 hPa 16.1 km SSW 24.1 km/h / 6.7 m/s - N/A   Clear
11:15 AM 18.4 °C - -0.7 °C 28% 1014.8 hPa 16.1 km SSW 24.1 km/h / 6.7 m/s 35.2 km/h / 9.8 m/s N/A   Clear
11:35 AM 19.2 °C - -0.8 °C 26% 1014.4 hPa 16.1 km SSW 27.8 km/h / 7.7 m/s 38.9 km/h / 10.8 m/s N/A   Clear
11:55 AM 19.9 °C - -0.2 °C 26% 1014.1 hPa 16.1 km SSW 25.9 km/h / 7.2 m/s 42.6 km/h / 11.8 m/s N/A   Clear
12:15 PM 19.5 °C - 0.0 °C 27% 1013.8 hPa 16.1 km SSW 35.2 km/h / 9.8 m/s 48.2 km/h / 13.4 m/s N/A   Clear
12:35 PM 20.0 °C - -0.1 °C 26% 1013.1 hPa 16.1 km SSW 33.3 km/h / 9.3 m/s 48.2 km/h / 13.4 m/s N/A   Clear
12:55 PM 20.3 °C - -0.3 °C 25% 1013.1 hPa 16.1 km SSW 33.3 km/h / 9.3 m/s 46.3 km/h / 12.9 m/s N/A   Clear
1:15 PM 21.0 °C - -0.5 °C 24% 1012.8 hPa 16.1 km SSW 42.6 km/h / 11.8 m/s 53.7 km/h / 14.9 m/s N/A   Clear
1:35 PM 21.2 °C - -0.7 °C 23% 1012.1 hPa 16.1 km SSW 35.2 km/h / 9.8 m/s 51.9 km/h / 14.4 m/s N/A   Clear
1:55 PM 22.3 °C - -1.6 °C 20% 1011.7 hPa 16.1 km SSW 33.3 km/h / 9.3 m/s 46.3 km/h / 12.9 m/s N/A   Clear
2:15 PM 21.9 °C - -1.0 °C 22% 1011.4 hPa 16.1 km SSW 33.3 km/h / 9.3 m/s 42.6 km/h / 11.8 m/s N/A   Clear
2:35 PM 22.5 °C - -1.3 °C 21% 1011.1 hPa 16.1 km SSW 35.2 km/h / 9.8 m/s 46.3 km/h / 12.9 m/s N/A   Clear
2:55 PM 23.1 °C - -2.1 °C 19% 1010.7 hPa 16.1 km SSW 33.3 km/h / 9.3 m/s 50.0 km/h / 13.9 m/s N/A   Clear
3:15 PM 22.5 °C - -1.7 °C 20% 1010.4 hPa 16.1 km South 29.6 km/h / 8.2 m/s 48.2 km/h / 13.4 m/s N/A   Clear
3:35 PM 22.2 °C - -1.5 °C 21% 1010.4 hPa 16.1 km SSW 31.5 km/h / 8.7 m/s 38.9 km/h / 10.8 m/s N/A   Clear
3:55 PM 22.0 °C - -1.2 °C 21% 1010.0 hPa 16.1 km SSW 24.1 km/h / 6.7 m/s - N/A   Clear
4:15 PM 21.5 °C - -1.0 °C 22% 1010.0 hPa 16.1 km South 29.6 km/h / 8.2 m/s 44.4 km/h / 12.3 m/s N/A   Clear
4:35 PM 20.6 °C - -0.3 °C 25% 1009.7 hPa 16.1 km South 22.2 km/h / 6.2 m/s 35.2 km/h / 9.8 m/s N/A   Clear
4:55 PM 20.0 °C - -0.5 °C 25% 1010.0 hPa 16.1 km SSW 24.1 km/h / 6.7 m/s 35.2 km/h / 9.8 m/s N/A   Clear
5:15 PM 18.9 °C - -0.1 °C 28% 1010.0 hPa 16.1 km SSW 20.4 km/h / 5.7 m/s - N/A   Clear
5:35 PM 17.7 °C - 0.6 °C 32% 1010.0 hPa 16.1 km South 16.7 km/h / 4.6 m/s 29.6 km/h / 8.2 m/s N/A   Clear
5:55 PM 17.7 °C - 0.7 °C 32% 1010.0 hPa 16.1 km South 20.4 km/h / 5.7 m/s - N/A   Clear
6:15 PM 17.7 °C - 1.1 °C 33% 1009.7 hPa 16.1 km South 20.4 km/h / 5.7 m/s - N/A   Clear
6:35 PM 16.6 °C - 2.0 °C 38% 1009.7 hPa 16.1 km South 18.5 km/h / 5.1 m/s - N/A   Clear
6:55 PM 16.6 °C - 2.0 °C 38% 1009.4 hPa 16.1 km South 24.1 km/h / 6.7 m/s - N/A   Clear
7:15 PM 17.5 °C - 1.5 °C 34% 1009.4 hPa 16.1 km South 24.1 km/h / 6.7 m/s - N/A   Clear
7:35 PM 17.1 °C - 1.6 °C 35% 1009.4 hPa 16.1 km South 25.9 km/h / 7.2 m/s - N/A   Clear
7:55 PM 16.6 °C - 1.8 °C 37% 1009.0 hPa 16.1 km South 24.1 km/h / 6.7 m/s - N/A   Clear
8:15 PM 16.0 °C - 2.2 °C 40% 1009.0 hPa 16.1 km South 20.4 km/h / 5.7 m/s 29.6 km/h / 8.2 m/s N/A   Clear
8:35 PM 15.5 °C - 2.5 °C 42% 1008.7 hPa 16.1 km South 18.5 km/h / 5.1 m/s - N/A   Clear
8:55 PM 16.2 °C - 2.7 °C 40% 1008.4 hPa 16.1 km South 22.2 km/h / 6.2 m/s - N/A   Clear
9:15 PM 16.6 °C - 2.9 °C 40% 1008.4 hPa 16.1 km South 27.8 km/h / 7.7 m/s 37.0 km/h / 10.3 m/s N/A   Clear
9:35 PM 17.0 °C - 3.3 °C 40% 1008.4 hPa 16.1 km South 24.1 km/h / 6.7 m/s - N/A   Clear
9:55 PM 16.8 °C - 3.7 °C 42% 1008.0 hPa 16.1 km SSW 25.9 km/h / 7.2 m/s 38.9 km/h / 10.8 m/s N/A   Clear
10:15 PM 16.5 °C - 4.0 °C 43% 1008.0 hPa 16.1 km South 25.9 km/h / 7.2 m/s 37.0 km/h / 10.3 m/s N/A   Clear
10:35 PM 16.2 °C - 4.3 °C 45% 1007.7 hPa 16.1 km South 24.1 km/h / 6.7 m/s - N/A   Clear
10:55 PM 15.6 °C - 4.6 °C 48% 1007.7 hPa 16.1 km South 24.1 km/h / 6.7 m/s - N/A   Clear
11:15 PM 15.7 °C - 4.7 °C 48% 1007.3 hPa 16.1 km South 20.4 km/h / 5.7 m/s - N/A   Clear
11:35 PM 15.5 °C - 4.7 °C 49% 1007.3 hPa 16.1 km SSW 20.4 km/h / 5.7 m/s - N/A   Clear
11:55 PM 15.6 °C - 4.6 °C 48% 1007.3 hPa 16.1 km SSW 22.2 km/h / 6.2 m/s - N/A   Clear